Time,TemperatureF,DewpointF,PressureIn,WindDirection,WindDirectionDegrees,WindSpeedMPH,WindSpeedGustMPH,Humidity,HourlyPrecipIn,Conditions,Clouds,dailyrainin,SolarRadiationWatts/m^2,SoftwareType,DateUTC
2013-08-24 00:02:00,57.0,55.0,-100.00,SE,145,3.0,5.0,93,0.00,,,0.15,0.000000,,2013-08-24 07:02:00,
2013-08-24 00:11:00,57.0,55.0,-100.00,SE,145,3.0,5.0,93,0.00,,,0.15,0.000000,,2013-08-24 07:11:00,
2013-08-24 00:43:00,57.0,55.0,-100.00,WNW,295,1.0,4.0,94,0.00,,,0.14,0.000000,,2013-08-24 07:43:00,
2013-08-24 00:53:00,57.0,55.0,-100.00,WNW,295,1.0,4.0,94,0.00,,,0.14,0.000000,,2013-08-24 07:53:00,
2013-08-24 01:02:00,57.0,55.0,-100.00,WNW,295,1.0,4.0,94,0.00,,,0.14,0.000000,,2013-08-24 08:02:00,
2013-08-24 01:12:00,57.0,55.0,-100.00,WNW,295,1.0,4.0,94,0.00,,,0.14,0.000000,,2013-08-24 08:12:00,
2013-08-24 01:42:00,56.0,55.0,-100.00,NNE,16,2.0,4.0,96,0.00,,,0.01,0.000000,,2013-08-24 08:42:00,
2013-08-24 01:52:00,56.0,55.0,-100.00,NNE,16,2.0,4.0,96,0.00,,,0.01,0.000000,,2013-08-24 08:52:00,
2013-08-24 02:01:00,56.0,55.0,-100.00,NNE,16,2.0,4.0,96,0.00,,,0.01,0.000000,,2013-08-24 09:01:00,
2013-08-24 02:11:00,56.0,55.0,-100.00,NNE,16,2.0,4.0,96,0.00,,,0.01,0.000000,,2013-08-24 09:11:00,
2013-08-24 02:13:00,54.0,53.0,-100.00,SSE,167,1.0,4.0,98,0.00,,,0.00,0.000000,,2013-08-24 09:13:00,
2013-08-24 02:44:00,54.0,53.0,-100.00,SSE,167,1.0,4.0,98,0.00,,,0.00,0.000000,,2013-08-24 09:44:00,
2013-08-24 02:53:00,54.0,53.0,-100.00,SSE,167,1.0,4.0,98,0.00,,,0.00,0.000000,,2013-08-24 09:53:00,
2013-08-24 03:03:00,54.0,53.0,-100.00,SSE,167,1.0,4.0,98,0.00,,,0.00,0.000000,,2013-08-24 10:03:00,
2013-08-24 03:42:00,53.0,53.0,-100.00,ENE,78,2.0,4.0,99,0.00,,,0.00,0.000000,,2013-08-24 10:42:00,
2013-08-24 03:53:00,53.0,53.0,-100.00,ENE,78,2.0,4.0,99,0.00,,,0.00,0.000000,,2013-08-24 10:53:00,
2013-08-24 04:02:00,53.0,53.0,-100.00,ENE,78,2.0,4.0,99,0.00,,,0.00,0.000000,,2013-08-24 11:02:00,
2013-08-24 04:11:00,53.0,53.0,-100.00,ENE,78,2.0,4.0,99,0.00,,,0.00,0.000000,,2013-08-24 11:11:00,
2013-08-24 04:42:00,52.0,52.0,-100.00,NNE,18,1.0,2.0,99,0.00,,,0.00,0.000000,,2013-08-24 11:42:00,
2013-08-24 04:52:00,52.0,52.0,-100.00,NNE,18,1.0,2.0,99,0.00,,,0.00,0.000000,,2013-08-24 11:52:00,
2013-08-24 05:02:00,52.0,52.0,-100.00,NNE,18,1.0,2.0,99,0.00,,,0.00,0.000000,,2013-08-24 12:02:00,
2013-08-24 05:11:00,52.0,52.0,-100.00,NNE,18,1.0,2.0,99,0.00,,,0.00,0.000000,,2013-08-24 12:11:00,
2013-08-24 05:42:00,54.0,54.0,-100.00,NE,49,0.0,4.0,99,0.00,,,0.00,0.000000,,2013-08-24 12:42:00,
2013-08-24 05:52:00,54.0,54.0,-100.00,NE,49,0.0,4.0,99,0.00,,,0.00,0.000000,,2013-08-24 12:52:00,
2013-08-24 06:02:00,54.0,54.0,-100.00,NE,49,0.0,4.0,99,0.00,,,0.00,0.000000,,2013-08-24 13:02:00,
2013-08-24 06:11:00,54.0,54.0,-100.00,NE,49,0.0,4.0,99,0.00,,,0.00,0.000000,,2013-08-24 13:11:00,
2013-08-24 06:42:00,54.0,54.0,-100.00,NNW,335,1.0,3.0,99,0.00,,,0.00,0.000000,,2013-08-24 13:42:00,
2013-08-24 06:52:00,54.0,54.0,-100.00,NNW,335,1.0,3.0,99,0.00,,,0.00,0.000000,,2013-08-24 13:52:00,
2013-08-24 07:02:00,54.0,54.0,-100.00,NNW,335,1.0,3.0,99,0.00,,,0.00,0.000000,,2013-08-24 14:02:00,
2013-08-24 07:11:00,54.0,54.0,-100.00,NNW,335,1.0,3.0,99,0.00,,,0.00,0.000000,,2013-08-24 14:11:00,
2013-08-24 07:42:00,55.0,54.0,-100.00,ESE,117,1.0,2.0,98,0.00,,,0.00,8.000000,,2013-08-24 14:42:00,
2013-08-24 07:52:00,55.0,54.0,-100.00,ESE,117,1.0,2.0,98,0.00,,,0.00,8.000000,,2013-08-24 14:52:00,
2013-08-24 08:01:00,55.0,54.0,-100.00,ESE,117,1.0,2.0,98,0.00,,,0.00,8.000000,,2013-08-24 15:01:00,
2013-08-24 08:11:00,55.0,54.0,-100.00,ESE,117,1.0,2.0,98,0.00,,,0.00,8.000000,,2013-08-24 15:11:00,
2013-08-24 08:13:00,58.0,56.0,-100.00,ESE,116,0.0,3.0,94,0.00,,,0.00,69.000000,,2013-08-24 15:13:00,
2013-08-24 08:45:00,58.0,56.0,-100.00,ESE,116,0.0,3.0,94,0.00,,,0.00,69.000000,,2013-08-24 15:45:00,
2013-08-24 08:54:00,58.0,56.0,-100.00,ESE,116,0.0,3.0,94,0.00,,,0.00,69.000000,,2013-08-24 15:54:00,
2013-08-24 09:04:00,58.0,56.0,-100.00,ESE,116,0.0,3.0,94,0.00,,,0.00,69.000000,,2013-08-24 16:04:00,
2013-08-24 09:42:00,62.0,56.0,-100.00,West,264,2.0,4.0,82,0.00,,,0.00,200.000000,,2013-08-24 16:42:00,
2013-08-24 09:53:00,62.0,56.0,-100.00,West,264,2.0,4.0,82,0.00,,,0.00,200.000000,,2013-08-24 16:53:00,
2013-08-24 10:02:00,62.0,56.0,-100.00,West,264,2.0,4.0,82,0.00,,,0.00,200.000000,,2013-08-24 17:02:00,
2013-08-24 10:12:00,62.0,56.0,-100.00,West,264,2.0,4.0,82,0.00,,,0.00,200.000000,,2013-08-24 17:12:00,
2013-08-24 10:13:00,64.0,57.0,-100.00,WSW,239,5.0,9.0,77,0.00,,,-99.99,323.000000,,2013-08-24 17:13:00,
2013-08-24 10:42:00,64.0,57.0,-100.00,WSW,239,5.0,9.0,77,0.00,,,-99.99,323.000000,,2013-08-24 17:42:00,
2013-08-24 10:52:00,64.0,57.0,-100.00,WSW,239,5.0,9.0,77,0.00,,,-99.99,323.000000,,2013-08-24 17:52:00,
2013-08-24 11:02:00,64.0,57.0,-100.00,WSW,239,5.0,9.0,77,0.00,,,-99.99,323.000000,,2013-08-24 18:02:00,
2013-08-24 11:42:00,66.0,57.0,-100.00,SW,235,5.0,9.0,72,0.00,,,0.00,260.000000,,2013-08-24 18:42:00,
2013-08-24 11:53:00,66.0,57.0,-100.00,SW,235,5.0,9.0,72,0.00,,,0.00,260.000000,,2013-08-24 18:53:00,
2013-08-24 12:01:00,66.0,57.0,-100.00,SW,235,5.0,9.0,72,0.00,,,0.00,260.000000,,2013-08-24 19:01:00,
2013-08-24 12:12:00,66.0,57.0,-100.00,SW,235,5.0,9.0,72,0.00,,,0.00,260.000000,,2013-08-24 19:12:00,
2013-08-24 12:42:00,68.0,56.0,-100.00,North,349,4.0,10.0,66,0.00,,,0.00,366.000000,,2013-08-24 19:42:00,
2013-08-24 12:52:00,68.0,56.0,-100.00,North,349,4.0,10.0,66,0.00,,,0.00,366.000000,,2013-08-24 19:52:00,
2013-08-24 13:02:00,68.0,56.0,-100.00,North,349,4.0,10.0,66,0.00,,,0.00,366.000000,,2013-08-24 20:02:00,
2013-08-24 13:11:00,68.0,56.0,-100.00,North,349,4.0,10.0,66,0.00,,,0.00,366.000000,,2013-08-24 20:11:00,
2013-08-24 13:42:00,70.0,55.0,-100.00,West,270,6.0,10.0,59,0.00,,,0.00,438.000000,,2013-08-24 20:42:00,
2013-08-24 13:52:00,70.0,55.0,-100.00,West,270,6.0,10.0,59,0.00,,,0.00,438.000000,,2013-08-24 20:52:00,
2013-08-24 14:02:00,70.0,55.0,-100.00,West,270,6.0,10.0,59,0.00,,,0.00,438.000000,,2013-08-24 21:02:00,
2013-08-24 14:11:00,70.0,55.0,-100.00,West,270,6.0,10.0,59,0.00,,,0.00,438.000000,,2013-08-24 21:11:00,
2013-08-24 14:13:00,71.0,54.0,-100.00,WNW,294,6.0,10.0,55,0.00,,,0.00,545.000000,,2013-08-24 21:13:00,
2013-08-24 14:43:00,71.0,54.0,-100.00,WNW,294,6.0,10.0,55,0.00,,,0.00,545.000000,,2013-08-24 21:43:00,
2013-08-24 14:55:00,71.0,54.0,-100.00,WNW,294,6.0,10.0,55,0.00,,,0.00,545.000000,,2013-08-24 21:55:00,
2013-08-24 15:04:00,71.0,54.0,-100.00,WNW,294,6.0,10.0,55,0.00,,,0.00,545.000000,,2013-08-24 22:04:00,
2013-08-24 15:43:00,72.0,52.0,-100.00,WSW,248,4.0,10.0,50,0.00,,,0.00,372.000000,,2013-08-24 22:43:00,
2013-08-24 15:53:00,72.0,52.0,-100.00,WSW,248,4.0,10.0,50,0.00,,,0.00,372.000000,,2013-08-24 22:53:00,
2013-08-24 16:03:00,72.0,52.0,-100.00,WSW,248,4.0,10.0,50,0.00,,,0.00,372.000000,,2013-08-24 23:03:00,
2013-08-24 16:12:00,72.0,52.0,-100.00,WSW,248,4.0,10.0,50,0.00,,,0.00,372.000000,,2013-08-24 23:12:00,
2013-08-24 16:43:00,74.0,52.0,-100.00,NNE,23,4.0,9.0,46,0.00,,,0.00,473.000000,,2013-08-24 23:43:00,
2013-08-24 16:53:00,74.0,52.0,-100.00,NNE,23,4.0,9.0,46,0.00,,,0.00,473.000000,,2013-08-24 23:53:00,
2013-08-24 17:01:00,74.0,52.0,-100.00,NNE,23,4.0,9.0,46,0.00,,,0.00,473.000000,,2013-08-25 00:01:00,
2013-08-24 17:11:00,74.0,52.0,-100.00,NNE,23,4.0,9.0,46,0.00,,,0.00,473.000000,,2013-08-25 00:11:00,
2013-08-24 17:42:00,73.0,51.0,-100.00,West,259,7.0,18.0,46,0.00,,,0.00,384.000000,,2013-08-25 00:42:00,
2013-08-24 17:52:00,73.0,51.0,-100.00,West,259,7.0,18.0,46,0.00,,,0.00,384.000000,,2013-08-25 00:52:00,
2013-08-24 18:01:00,73.0,51.0,-100.00,West,259,7.0,18.0,46,0.00,,,0.00,384.000000,,2013-08-25 01:01:00,
2013-08-24 18:11:00,73.0,51.0,-100.00,West,259,7.0,18.0,46,0.00,,,0.00,384.000000,,2013-08-25 01:11:00,
2013-08-24 18:42:00,72.0,51.0,-100.00,SSE,162,2.0,9.0,48,0.00,,,0.00,207.000000,,2013-08-25 01:42:00,
2013-08-24 18:52:00,72.0,51.0,-100.00,SSE,162,2.0,9.0,48,0.00,,,0.00,207.000000,,2013-08-25 01:52:00,
2013-08-24 19:02:00,72.0,51.0,-100.00,SSE,162,2.0,9.0,48,0.00,,,0.00,207.000000,,2013-08-25 02:02:00,
2013-08-24 19:11:00,72.0,51.0,-100.00,SSE,162,2.0,9.0,48,0.00,,,0.00,207.000000,,2013-08-25 02:11:00,
2013-08-24 19:42:00,72.0,53.0,-100.00,WNW,298,3.0,7.0,51,0.00,,,0.00,150.000000,,2013-08-25 02:42:00,
2013-08-24 19:52:00,72.0,53.0,-100.00,WNW,298,3.0,7.0,51,0.00,,,0.00,150.000000,,2013-08-25 02:52:00,
2013-08-24 20:02:00,72.0,53.0,-100.00,WNW,298,3.0,7.0,51,0.00,,,0.00,150.000000,,2013-08-25 03:02:00,
2013-08-24 20:11:00,72.0,53.0,-100.00,WNW,298,3.0,7.0,51,0.00,,,0.00,150.000000,,2013-08-25 03:11:00,
2013-08-24 20:13:00,67.0,54.0,-100.00,SE,141,2.0,5.0,63,0.00,,,0.00,20.000000,,2013-08-25 03:13:00,
2013-08-24 20:44:00,67.0,54.0,-100.00,SE,141,2.0,5.0,63,0.00,,,0.00,20.000000,,2013-08-25 03:44:00,
2013-08-24 20:54:00,67.0,54.0,-100.00,SE,141,2.0,5.0,63,0.00,,,0.00,20.000000,,2013-08-25 03:54:00,
2013-08-24 21:02:00,-999.0,-99.9,-100.00,SE,141,2.0,5.0,-999,-99.99,,,-99.99,20.000000,,2013-08-25 04:02:00,
2013-08-24 21:44:00,64.0,54.0,-100.00,West,278,3.0,7.0,69,0.00,,,0.00,0.000000,,2013-08-25 04:44:00,
2013-08-24 21:54:00,64.0,54.0,-100.00,West,278,3.0,7.0,69,0.00,,,0.00,0.000000,,2013-08-25 04:54:00,
2013-08-24 22:03:00,64.0,54.0,-100.00,West,278,3.0,7.0,69,0.00,,,0.00,0.000000,,2013-08-25 05:03:00,
2013-08-24 22:12:00,64.0,54.0,-100.00,West,278,3.0,7.0,69,0.00,,,0.00,0.000000,,2013-08-25 05:12:00,
2013-08-24 22:42:00,63.0,52.0,-100.00,WNW,295,3.0,5.0,68,0.00,,,0.00,0.000000,,2013-08-25 05:42:00,
2013-08-24 22:52:00,63.0,52.0,-100.00,WNW,295,3.0,5.0,68,0.00,,,0.00,0.000000,,2013-08-25 05:52:00,
2013-08-24 23:03:00,63.0,52.0,-100.00,WNW,295,3.0,5.0,68,0.00,,,0.00,0.000000,,2013-08-25 06:03:00,
2013-08-24 23:12:00,63.0,52.0,-100.00,WNW,295,3.0,5.0,68,0.00,,,0.00,0.000000,,2013-08-25 06:12:00,
2013-08-24 23:43:00,61.0,54.0,-100.00,South,191,3.0,4.0,79,0.00,,,0.00,0.000000,,2013-08-25 06:43:00,
2013-08-24 23:52:00,61.0,54.0,-100.00,South,191,3.0,4.0,79,0.00,,,0.00,0.000000,,2013-08-25 06:52:00,